Weather History for Sarasota, FL

Change the Weather History Date:

Wednesday, January 30, 2013

  Actual Average Record
Temperature  
Mean Temperature 73 °F 62 °F  
Max Temperature 80 °F 72 °F 85 °F (1975)
Min Temperature 65 °F 52 °F 31 °F (1978)
Degree Days  
Heating Degree Days 0 5  
Month to date heating degree days 42 159  
Since 1 July heating degree days 160 314  
Cooling Degree Days 8 2  
Month to date cooling degree days 117 60  
Year to date cooling degree days 117 60  
Growing Degree Days 22 (Base 50)    
Moisture  
Dew Point 64 °F    
Average Humidity 78    
Maximum Humidity 93    
Minimum Humidity 58    
Precipitation  
Precipitation 0.00 in 0.05 in 1.27 in (1926)
Month to date precipitation 0.12 2.43  
Year to date precipitation 0.12 2.43  
Sea Level Pressure  
Sea Level Pressure 29.99 in    
Wind  
Wind Speed 17 mph (SSE)    
Max Wind Speed 32 mph    
Max Gust Speed 41 mph    
Visibility 10 miles    
Events      
T = Trace of Precipitation, MM = Missing Value Source: NWS Daily Summary

Daily Weather History Graph

Daily Weather History Graph

Search for Another Location

Airport:

Trip Planner

Search our weather history database for the weather conditions in past years. The results will help you decide how hot, cold, wet, or windy it might be!

Date:

Astronomy

Jan. 30, 2013 Rise Set
Actual Time 7:17 AM EST 6:10 PM EST
Civil Twilight 6:52 AM EST 6:34 PM EST
Nautical Twilight 6:24 AM EST 7:02 PM EST
Astronomical Twilight 5:57 AM EST 7:30 PM EST
Moon 9:40 PM EST (1/30) 9:08 AM EST (1/30)
Length of Visible Light 11h 41m
Length of Day
10h 52m
Waning Gibbous, 88% of the Moon is Illuminated
Jan 30
Waning Gibbous
Feb 3
Last Quarter
Feb 10
New
Feb 17
First Quarter
Feb 25
Full

Hourly Weather History & Observations

Time (EST) Temp. Dew Point Humidity Pressure Visibility Wind Dir Wind Speed Gust Speed Precip Events Conditions
12:53 AM 68.0 °F 64.9 °F 90% 30.09 in 10.0 mi ESE 6.9 mph - N/A   Clear
1:53 AM 68.0 °F 64.0 °F 87% 30.08 in 10.0 mi ESE 9.2 mph - N/A   Clear
2:53 AM 68.0 °F 64.0 °F 87% 30.06 in 10.0 mi SE 11.5 mph - N/A   Clear
3:53 AM 66.0 °F 64.0 °F 93% 30.06 in 10.0 mi SE 10.4 mph - N/A   Clear
4:53 AM 66.0 °F 63.0 °F 90% 30.03 in 10.0 mi SE 10.4 mph - N/A   Clear
5:53 AM 64.9 °F 63.0 °F 93% 30.04 in 10.0 mi SE 9.2 mph - N/A   Clear
6:53 AM 64.9 °F 62.1 °F 90% 30.04 in 10.0 mi SE 9.2 mph - N/A   Clear
7:53 AM 64.9 °F 63.0 °F 93% 30.04 in 10.0 mi SE 10.4 mph - N/A   Clear
8:53 AM 70.0 °F 64.9 °F 84% 30.03 in 10.0 mi SSE 16.1 mph 21.9 mph N/A   Clear
9:53 AM 75.0 °F 64.9 °F 71% 30.01 in 10.0 mi SSE 18.4 mph 28.8 mph N/A   Clear
10:53 AM 78.1 °F 63.0 °F 60% 30.00 in 10.0 mi South 23.0 mph 31.1 mph N/A   Clear
11:53 AM 79.0 °F 63.0 °F 58% 29.98 in 10.0 mi South 25.3 mph 38.0 mph N/A   Clear
12:53 PM 79.0 °F 64.9 °F 62% 29.97 in 10.0 mi South 21.9 mph 31.1 mph N/A   Clear
1:53 PM 79.0 °F 64.9 °F 62% 29.98 in 10.0 mi South 20.7 mph 29.9 mph N/A   Clear
2:53 PM 78.1 °F 66.0 °F 66% 29.96 in 10.0 mi South 24.2 mph 32.2 mph N/A   Clear
3:53 PM 78.1 °F 64.9 °F 64% 29.95 in 10.0 mi South 25.3 mph 31.1 mph N/A   Clear
4:53 PM 75.9 °F 64.0 °F 67% 29.94 in 10.0 mi South 20.7 mph 32.2 mph N/A   Clear
5:53 PM 75.0 °F 64.0 °F 69% 29.93 in 10.0 mi South 20.7 mph 28.8 mph N/A   Clear
6:53 PM 73.0 °F 64.0 °F 73% 29.93 in 10.0 mi South 17.3 mph 25.3 mph N/A   Clear
7:53 PM 73.0 °F 64.9 °F 76% 29.93 in 10.0 mi South 17.3 mph - N/A   Clear
8:53 PM 73.0 °F 64.9 °F 76% 29.93 in 10.0 mi South 19.6 mph 25.3 mph N/A   Clear
9:53 PM 72.0 °F 66.0 °F 81% 29.94 in 10.0 mi South 18.4 mph 25.3 mph N/A   Clear
10:53 PM 71.1 °F 66.9 °F 87% 29.94 in 10.0 mi South 18.4 mph 26.5 mph N/A   Clear
11:53 PM 71.1 °F 66.9 °F 87% 29.94 in 10.0 mi South 16.1 mph 23.0 mph N/A   Mostly Cloudy